Location: Atbuku
(36.4936°N, 30.4362°E)
Time: 09:27:56
(UTC+00:00)

Cosmos 1607 - Pass Details

Date: 19 March 2026
Orbit: 919 x 983 km, 65.0° (Epoch: 20 April)

Event Time Altitude Azimuth Distance (km) Brightness Sun altitude
Rises 17:28:08 0° 316° (NW) 3,656 8.0 -16.6°
Reaches altitude 10° 17:31:11 10° 303° (WNW) 2,715 7.4 -17.2°
Maximum altitude 17:36:04 24° 252° (WSW) 1,903 6.2 -18.2°
Drops below altitude 10° 17:41:00 10° 201° (SSW) 2,723 6.4 -19.1°
Sets 17:44:04 0° 188° (S) 3,669 6.9 -19.7°
